[Date Prev][Date Next][Thread Prev][Thread Next] - [Date Index][Thread Index][Author Index]
2 Line ISS Keps 12-4
- Subject: [sarex] 2 Line ISS Keps 12-4
- From: "Dave Larsen PhD" <doc@xxxxxxxxxxx>
- Date: Thu, 4 Dec 2003 02:16:40 -0800
ISS
1 25544U 98067A 03338.17021488 .00026231 00000-0 26408-3 0 8567
2 25544 51.6301 242.6332 0006126 205.4271 309.6529 15.65210412287576
----
Via the sarex mailing list at AMSAT.ORG courtesy of AMSAT-NA.
To unsubscribe, send "unsubscribe sarex" to Majordomo@amsat.org
AMSAT Home